When you browse on this site, cookies collect data to enhance your experience and personalize the content and advertising you see.
Visit our Privacy Policy to learn more. By continuing to use the site, you agree to this use of cookies and data.
  • En España
  • Lista de países
  • Para 7 días
  • Temperatura del agua
  • El tiempo en el mapa
  • Informadores
  • user-avatar
    Iniciar sesión

    Tiempo cada hora Gweru

    Hoy, 20 Febrero, Jueves

    Tiempo Temperatura Precipitaciones Viento Presión Humedad
    00:00 +19°C° 0 mm 3 mps 645 mmHg 90%
    01:00 +18°C° 0 mm 3 mps 644 mmHg 90%
    02:00 +18°C° 0 mm 3 mps 644 mmHg 89%
    03:00 +18°C° 0 mm 3 mps 644 mmHg 90%
    04:00 +17°C° 0 mm 2 mps 644 mmHg 92%
    05:00 +17°C° 0 mm 2 mps 643 mmHg 93%
    06:00 +18°C° 0 mm 2 mps 644 mmHg 87%
    07:00 +19°C° 0 mm 3 mps 645 mmHg 80%
    08:00 +21°C° 0 mm 3 mps 645 mmHg 74%
    09:00 +24°C° 0 mm 2 mps 646 mmHg 68%
    10:00 +25°C° 0 mm 2 mps 646 mmHg 62%
    11:00 +27°C° 0 mm 2 mps 646 mmHg 56%
    12:00 +28°C° 0.1 mm 1 mps 646 mmHg 54%
    13:00 +28°C° 0.1 mm 1 mps 645 mmHg 51%
    14:00 +29°C° 0.1 mm 1 mps 645 mmHg 49%
    15:00 +28°C° 0.1 mm 1 mps 644 mmHg 51%
    16:00 +28°C° 0.1 mm 2 mps 643 mmHg 52%
    17:00 +27°C° 0.1 mm 2 mps 643 mmHg 54%
    18:00 +25°C° 0 mm 2 mps 643 mmHg 57%
    19:00 +24°C° 0 mm 2 mps 643 mmHg 61%
    20:00 +21°C° 0 mm 2 mps 643 mmHg 64%
    21:00 +20°C° 0 mm 2 mps 643 mmHg 69%
    22:00 +20°C° 0 mm 2 mps 643 mmHg 75%
    23:00 +19°C° 0 mm 2 mps 643 mmHg 80%

    Mañana, 21 Febrero, Viernes

    Tiempo Temperatura Precipitaciones Viento Presión Humedad
    00:00 +19°C° 0 mm 2 mps 643 mmHg 79%
    01:00 +19°C° 0 mm 1 mps 643 mmHg 79%
    02:00 +19°C° 0 mm 1 mps 643 mmHg 79%
    03:00 +19°C° 0 mm 1 mps 642 mmHg 80%
    04:00 +18°C° 0 mm 1 mps 642 mmHg 82%
    05:00 +18°C° 0 mm 1 mps 642 mmHg 83%
    06:00 +20°C° 0 mm 1 mps 643 mmHg 77%
    07:00 +21°C° 0 mm 1 mps 644 mmHg 72%
    08:00 +23°C° 0 mm 1 mps 645 mmHg 66%
    15:00 +29°C° 0 mm 4 mps 644 mmHg 46%
    16:00 +29°C° 0 mm 4 mps 643 mmHg 49%
    17:00 +28°C° 0 mm 4 mps 643 mmHg 52%
    18:00 +26°C° 0 mm 3 mps 643 mmHg 59%
    19:00 +24°C° 0 mm 3 mps 643 mmHg 67%
    20:00 +21°C° 0 mm 3 mps 643 mmHg 74%
    21:00 +21°C° 0 mm 3 mps 643 mmHg 76%
    22:00 +20°C° 0 mm 2 mps 643 mmHg 78%
    23:00 +20°C° 0 mm 2 mps 643 mmHg 80%

    Pasado mañana, 22 Febrero, Sábado

    Tiempo Temperatura Precipitaciones Viento Presión Humedad
    00:00 +19°C° 0 mm 2 mps 643 mmHg 82%
    01:00 +19°C° 0 mm 2 mps 642 mmHg 84%
    02:00 +18°C° 0 mm 2 mps 642 mmHg 87%
    03:00 +18°C° 0 mm 2 mps 642 mmHg 88%
    04:00 +18°C° 0 mm 2 mps 642 mmHg 90%
    05:00 +18°C° 0 mm 1 mps 642 mmHg 92%
    06:00 +19°C° 0 mm 2 mps 642 mmHg 86%
    07:00 +20°C° 0 mm 2 mps 643 mmHg 79%
    08:00 +23°C° 0 mm 2 mps 644 mmHg 73%
    09:00 +25°C° 0 mm 2 mps 645 mmHg 64%
    10:00 +27°C° 0 mm 1 mps 645 mmHg 56%
    11:00 +29°C° 0 mm 1 mps 645 mmHg 47%
    12:00 +30°C° 0 mm 1 mps 645 mmHg 43%
    13:00 +31°C° 0 mm 1 mps 644 mmHg 39%
    14:00 +32°C° 0 mm 1 mps 644 mmHg 35%
    15:00 +31°C° 0 mm 2 mps 643 mmHg 38%
    16:00 +30°C° 0 mm 2 mps 642 mmHg 40%
    17:00 +29°C° 0 mm 3 mps 642 mmHg 43%
    18:00 +27°C° 0 mm 2 mps 641 mmHg 48%
    19:00 +25°C° 0 mm 2 mps 641 mmHg 53%
    20:00 +23°C° 0 mm 1 mps 641 mmHg 59%
    21:00 +23°C° 0 mm 1 mps 642 mmHg 64%
    22:00 +21°C° 0 mm 2 mps 642 mmHg 69%
    23:00 +20°C° 0 mm 2 mps 642 mmHg 75%

    23 Febrero, Domingo

    Tiempo Temperatura Precipitaciones Viento Presión Humedad
    00:00 +20°C° 0 mm 2 mps 642 mmHg 76%
    01:00 +20°C° 0 mm 2 mps 641 mmHg 77%
    02:00 +19°C° 0 mm 2 mps 641 mmHg 78%
    03:00 +19°C° 0 mm 2 mps 641 mmHg 81%
    04:00 +18°C° 0 mm 2 mps 641 mmHg 83%
    05:00 +18°C° 0 mm 2 mps 641 mmHg 86%
    06:00 +20°C° 0 mm 2 mps 642 mmHg 82%
    07:00 +22°C° 0 mm 1 mps 642 mmHg 78%
    08:00 +24°C° 0 mm 1 mps 643 mmHg 74%
    09:00 +26°C° 0 mm 1 mps 644 mmHg 64%
    10:00 +28°C° 0 mm 1 mps 644 mmHg 55%
    11:00 +31°C° 0 mm 1 mps 644 mmHg 45%
    12:00 +31°C° 0 mm 2 mps 644 mmHg 45%
    13:00 +30°C° 0 mm 2 mps 643 mmHg 44%
    14:00 +30°C° 0 mm 3 mps 643 mmHg 43%
    15:00 +29°C° 0 mm 4 mps 642 mmHg 49%
    16:00 +28°C° 0 mm 4 mps 642 mmHg 54%
    17:00 +27°C° 0 mm 5 mps 641 mmHg 59%
    18:00 +26°C° 0.1 mm 5 mps 642 mmHg 67%
    19:00 +23°C° 0.1 mm 6 mps 642 mmHg 75%
    20:00 +21°C° 0.1 mm 6 mps 642 mmHg 84%
    21:00 +21°C° 0.1 mm 6 mps 643 mmHg 85%
    22:00 +21°C° 0.1 mm 6 mps 643 mmHg 85%
    23:00 +20°C° 0.1 mm 6 mps 643 mmHg 86%

    24 Febrero, Lunes

    Tiempo Temperatura Precipitaciones Viento Presión Humedad
    00:00 +20°C° 0 mm 6 mps 643 mmHg 86%
    01:00 +20°C° 0 mm 6 mps 643 mmHg 87%
    02:00 +19°C° 0 mm 6 mps 643 mmHg 87%
    03:00 +19°C° 0.1 mm 6 mps 643 mmHg 88%
    04:00 +19°C° 0.1 mm 5 mps 643 mmHg 88%
    05:00 +19°C° 0.1 mm 5 mps 643 mmHg 89%
    06:00 +19°C° 0.1 mm 5 mps 643 mmHg 89%
    07:00 +19°C° 0.1 mm 6 mps 643 mmHg 88%
    08:00 +19°C° 0.1 mm 6 mps 644 mmHg 88%
    09:00 +19°C° 0.2 mm 6 mps 644 mmHg 88%
    10:00 +19°C° 0.2 mm 6 mps 644 mmHg 89%
    11:00 +19°C° 0.2 mm 5 mps 644 mmHg 89%
    12:00 +19°C° 0 mm 6 mps 644 mmHg 87%
    13:00 +19°C° 0 mm 6 mps 643 mmHg 86%
    14:00 +19°C° 0 mm 6 mps 643 mmHg 84%
    15:00 +17°C° 0 mm 6 mps 643 mmHg 84%
    16:00 +17°C° 0 mm 6 mps 642 mmHg 85%
    17:00 +17°C° 0 mm 6 mps 642 mmHg 85%
    18:00 +16°C° 0 mm 6 mps 643 mmHg 86%
    19:00 +16°C° 0 mm 6 mps 643 mmHg 86%
    20:00 +16°C° 0 mm 5 mps 643 mmHg 87%
    21:00 +15°C° 0.3 mm 5 mps 643 mmHg 89%
    22:00 +15°C° 0.3 mm 5 mps 644 mmHg 91%
    23:00 +15°C° 0.3 mm 4 mps 644 mmHg 92%

    25 Febrero, Martes

    Tiempo Temperatura Precipitaciones Viento Presión Humedad
    00:00 +15°C° 0.2 mm 4 mps 643 mmHg 93%
    01:00 +15°C° 0.2 mm 4 mps 643 mmHg 93%
    02:00 +15°C° 0.2 mm 4 mps 643 mmHg 93%
    03:00 +15°C° 0.3 mm 4 mps 643 mmHg 94%
    04:00 +15°C° 0.3 mm 4 mps 643 mmHg 95%
    05:00 +15°C° 0.3 mm 4 mps 643 mmHg 96%
    06:00 +15°C° 0.3 mm 4 mps 643 mmHg 95%
    07:00 +15°C° 0.3 mm 4 mps 644 mmHg 94%
    08:00 +16°C° 0.3 mm 5 mps 644 mmHg 93%
    09:00 +16°C° 0 mm 5 mps 644 mmHg 91%
    10:00 +16°C° 0 mm 5 mps 644 mmHg 89%
    11:00 +17°C° 0 mm 5 mps 644 mmHg 87%
    12:00 +19°C° 0 mm 5 mps 644 mmHg 83%
    13:00 +20°C° 0 mm 5 mps 644 mmHg 78%
    14:00 +21°C° 0 mm 5 mps 643 mmHg 74%
    15:00 +20°C° 0 mm 4 mps 643 mmHg 76%
    16:00 +20°C° 0 mm 4 mps 642 mmHg 79%
    17:00 +19°C° 0 mm 4 mps 642 mmHg 81%
    18:00 +18°C° 0 mm 4 mps 642 mmHg 84%
    19:00 +18°C° 0 mm 4 mps 643 mmHg 87%
    20:00 +16°C° 0 mm 5 mps 643 mmHg 90%
    21:00 +17°C° 0 mm 4 mps 643 mmHg 89%
    22:00 +17°C° 0 mm 4 mps 643 mmHg 88%
    23:00 +17°C° 0 mm 4 mps 644 mmHg 87%
    Mostrar más